Stündliche Wetter Holmogory

Heute, 16 Juni, Mittwoch

Zeit Temperatur Niederschläge Wind Luftdruck Luftfeuchtigkeit
00:00 +13°C° 0 mm 2 m/S 751 mmHg 68%
01:00 +13°C° 0 mm 2 m/S 751 mmHg 68%
02:00 +12°C° 0 mm 3 m/S 751 mmHg 69%
03:00 +12°C° 0 mm 3 m/S 752 mmHg 71%
04:00 +13°C° 0 mm 3 m/S 752 mmHg 67%
05:00 +13°C° 0 mm 4 m/S 752 mmHg 62%
06:00 +14°C° 0 mm 4 m/S 752 mmHg 58%
07:00 +14°C° 0 mm 4 m/S 753 mmHg 57%
08:00 +15°C° 0 mm 4 m/S 753 mmHg 55%
09:00 +15°C° 0 mm 4 m/S 754 mmHg 54%
10:00 +15°C° 0.1 mm 4 m/S 754 mmHg 51%
11:00 +17°C° 0.1 mm 3 m/S 755 mmHg 48%
12:00 +17°C° 0.1 mm 3 m/S 755 mmHg 44%
13:00 +17°C° 0 mm 3 m/S 755 mmHg 44%
14:00 +17°C° 0 mm 3 m/S 755 mmHg 44%
15:00 +17°C° 0 mm 4 m/S 755 mmHg 44%
16:00 +17°C° 0 mm 4 m/S 756 mmHg 44%
17:00 +17°C° 0 mm 3 m/S 756 mmHg 43%
18:00 +16°C° 0 mm 3 m/S 756 mmHg 43%
19:00 +14°C° 0 mm 3 m/S 757 mmHg 46%
20:00 +13°C° 0 mm 3 m/S 757 mmHg 50%
21:00 +13°C° 0 mm 2 m/S 757 mmHg 53%
22:00 +10°C° 0 mm 2 m/S 758 mmHg 59%
23:00 +9°C° 0 mm 2 m/S 758 mmHg 64%

Morgen, 17 Juni, Donnerstag

Zeit Temperatur Niederschläge Wind Luftdruck Luftfeuchtigkeit
00:00 +9°C° 0 mm 1 m/S 758 mmHg 69%
01:00 +8°C° 0.1 mm 1 m/S 758 mmHg 73%
02:00 +8°C° 0.1 mm 1 m/S 759 mmHg 76%
03:00 +7°C° 0.1 mm 2 m/S 759 mmHg 80%
04:00 +8°C° 0.3 mm 2 m/S 759 mmHg 84%
05:00 +8°C° 0.3 mm 2 m/S 760 mmHg 87%
06:00 +8°C° 0.3 mm 2 m/S 760 mmHg 91%
07:00 +9°C° 0 mm 2 m/S 761 mmHg 87%
08:00 +9°C° 0 mm 3 m/S 761 mmHg 83%
09:00 +10°C° 0 mm 3 m/S 762 mmHg 80%
10:00 +11°C° 0 mm 3 m/S 762 mmHg 72%
11:00 +13°C° 0 mm 2 m/S 763 mmHg 64%
12:00 +14°C° 0 mm 2 m/S 764 mmHg 57%
13:00 +15°C° 0 mm 2 m/S 764 mmHg 51%
14:00 +16°C° 0 mm 2 m/S 764 mmHg 46%
15:00 +17°C° 0 mm 2 m/S 764 mmHg 41%
16:00 +17°C° 0 mm 2 m/S 764 mmHg 38%
17:00 +18°C° 0 mm 2 m/S 764 mmHg 35%
18:00 +18°C° 0 mm 2 m/S 765 mmHg 31%
19:00 +17°C° 0 mm 2 m/S 765 mmHg 39%
20:00 +15°C° 0 mm 1 m/S 765 mmHg 46%
21:00 +14°C° 0 mm 1 m/S 765 mmHg 53%
22:00 +13°C° 0 mm 1 m/S 765 mmHg 55%
23:00 +12°C° 0 mm 2 m/S 765 mmHg 57%

übermorgen, 18 Juni, Freitag

Zeit Temperatur Niederschläge Wind Luftdruck Luftfeuchtigkeit
00:00 +10°C° 0 mm 2 m/S 765 mmHg 60%
01:00 +10°C° 0 mm 2 m/S 765 mmHg 62%
02:00 +10°C° 0 mm 2 m/S 764 mmHg 64%
03:00 +10°C° 0 mm 2 m/S 764 mmHg 66%
04:00 +12°C° 0 mm 2 m/S 764 mmHg 63%
05:00 +12°C° 0 mm 3 m/S 763 mmHg 59%
06:00 +13°C° 0 mm 3 m/S 762 mmHg 56%
07:00 +15°C° 0 mm 4 m/S 762 mmHg 53%
08:00 +19°C° 0 mm 4 m/S 762 mmHg 50%
09:00 +21°C° 0 mm 4 m/S 761 mmHg 47%
10:00 +23°C° 0 mm 4 m/S 761 mmHg 44%
11:00 +25°C° 0 mm 5 m/S 761 mmHg 42%
12:00 +26°C° 0 mm 5 m/S 760 mmHg 39%
13:00 +26°C° 0 mm 5 m/S 760 mmHg 38%
14:00 +27°C° 0 mm 5 m/S 760 mmHg 36%
15:00 +27°C° 0 mm 5 m/S 760 mmHg 34%
16:00 +27°C° 0 mm 4 m/S 760 mmHg 33%
17:00 +26°C° 0 mm 4 m/S 760 mmHg 32%
18:00 +26°C° 0 mm 3 m/S 760 mmHg 31%
19:00 +24°C° 0 mm 3 m/S 759 mmHg 38%
20:00 +21°C° 0 mm 2 m/S 759 mmHg 45%
21:00 +19°C° 0 mm 2 m/S 759 mmHg 52%
22:00 +19°C° 0 mm 2 m/S 759 mmHg 55%
23:00 +18°C° 0 mm 2 m/S 758 mmHg 58%

19 Juni, Samstag

Zeit Temperatur Niederschläge Wind Luftdruck Luftfeuchtigkeit
00:00 +17°C° 0 mm 3 m/S 758 mmHg 60%
01:00 +17°C° 0 mm 3 m/S 758 mmHg 62%
02:00 +18°C° 0 mm 4 m/S 758 mmHg 64%
03:00 +18°C° 0 mm 4 m/S 757 mmHg 65%
04:00 +19°C° 0 mm 4 m/S 757 mmHg 63%
05:00 +21°C° 0 mm 5 m/S 757 mmHg 61%
06:00 +22°C° 0 mm 5 m/S 757 mmHg 59%
07:00 +22°C° 0 mm 5 m/S 757 mmHg 58%
08:00 +23°C° 0 mm 5 m/S 758 mmHg 56%
09:00 +24°C° 0 mm 6 m/S 758 mmHg 55%
10:00 +25°C° 0 mm 5 m/S 758 mmHg 56%
11:00 +23°C° 0 mm 5 m/S 759 mmHg 57%
12:00 +23°C° 0 mm 5 m/S 759 mmHg 58%
13:00 +21°C° 0.1 mm 4 m/S 760 mmHg 63%
14:00 +19°C° 0.1 mm 4 m/S 761 mmHg 67%
15:00 +17°C° 0.1 mm 3 m/S 761 mmHg 72%
16:00 +19°C° 0 mm 3 m/S 761 mmHg 63%
17:00 +20°C° 0 mm 3 m/S 762 mmHg 54%
18:00 +21°C° 0 mm 4 m/S 762 mmHg 44%
19:00 +20°C° 0 mm 3 m/S 762 mmHg 50%
20:00 +19°C° 0 mm 2 m/S 763 mmHg 55%
21:00 +19°C° 0 mm 1 m/S 763 mmHg 60%
22:00 +16°C° 0 mm 1 m/S 764 mmHg 66%
23:00 +15°C° 0 mm 1 m/S 764 mmHg 71%

20 Juni, Sonntag

Zeit Temperatur Niederschläge Wind Luftdruck Luftfeuchtigkeit
00:00 +13°C° 0 mm 1 m/S 765 mmHg 76%
01:00 +13°C° 0 mm 2 m/S 765 mmHg 78%
02:00 +13°C° 0 mm 2 m/S 765 mmHg 79%
03:00 +12°C° 0 mm 2 m/S 765 mmHg 80%
04:00 +13°C° 0 mm 2 m/S 765 mmHg 75%
05:00 +14°C° 0 mm 3 m/S 764 mmHg 71%
06:00 +16°C° 0 mm 3 m/S 764 mmHg 67%
07:00 +14°C° 1.2 mm 3 m/S 764 mmHg 76%
08:00 +14°C° 1.2 mm 3 m/S 763 mmHg 86%
09:00 +13°C° 1.2 mm 3 m/S 763 mmHg 95%
10:00 +14°C° 0.7 mm 3 m/S 762 mmHg 95%
11:00 +16°C° 0.7 mm 3 m/S 762 mmHg 95%
12:00 +17°C° 0.7 mm 3 m/S 761 mmHg 95%
13:00 +19°C° 0.4 mm 2 m/S 761 mmHg 88%
14:00 +21°C° 0.4 mm 2 m/S 761 mmHg 82%
15:00 +25°C° 0.4 mm 2 m/S 760 mmHg 75%
16:00 +25°C° 0.1 mm 2 m/S 760 mmHg 73%
17:00 +25°C° 0.1 mm 2 m/S 761 mmHg 72%
18:00 +25°C° 0.1 mm 3 m/S 761 mmHg 71%
19:00 +23°C° 0.2 mm 2 m/S 761 mmHg 78%
20:00 +20°C° 0.2 mm 2 m/S 761 mmHg 86%
21:00 +18°C° 0.2 mm 2 m/S 761 mmHg 94%
22:00 +17°C° 1.3 mm 2 m/S 761 mmHg 95%
23:00 +16°C° 1.3 mm 2 m/S 760 mmHg 97%

21 Juni, Montag

Zeit Temperatur Niederschläge Wind Luftdruck Luftfeuchtigkeit
00:00 +15°C° 1.3 mm 2 m/S 760 mmHg 98%
01:00 +15°C° 3.1 mm 2 m/S 760 mmHg 98%
02:00 +15°C° 3.1 mm 2 m/S 760 mmHg 98%
03:00 +15°C° 3.1 mm 2 m/S 760 mmHg 99%
04:00 +15°C° 1.3 mm 2 m/S 760 mmHg 98%
05:00 +15°C° 1.3 mm 2 m/S 760 mmHg 98%
06:00 +15°C° 1.3 mm 1 m/S 759 mmHg 97%
07:00 +15°C° 0 mm 2 m/S 760 mmHg 96%
08:00 +16°C° 0 mm 2 m/S 760 mmHg 95%
09:00 +16°C° 0 mm 3 m/S 760 mmHg 94%
10:00 +16°C° 0.1 mm 3 m/S 760 mmHg 92%
11:00 +16°C° 0.1 mm 3 m/S 760 mmHg 91%
12:00 +17°C° 0.1 mm 3 m/S 760 mmHg 89%
13:00 +17°C° 0.1 mm 3 m/S 760 mmHg 89%
14:00 +17°C° 0.1 mm 3 m/S 760 mmHg 88%
15:00 +18°C° 0.1 mm 3 m/S 760 mmHg 87%
16:00 +18°C° 0 mm 3 m/S 761 mmHg 84%
17:00 +19°C° 0 mm 3 m/S 761 mmHg 80%
18:00 +20°C° 0 mm 2 m/S 761 mmHg 76%
19:00 +19°C° 0 mm 2 m/S 761 mmHg 78%
20:00 +18°C° 0 mm 2 m/S 761 mmHg 81%
21:00 +17°C° 0 mm 2 m/S 762 mmHg 83%
22:00 +17°C° 0 mm 2 m/S 762 mmHg 84%
23:00 +16°C° 0 mm 2 m/S 762 mmHg 86%
Mehr zeigen

Wir brauchen deine Erlaubnis

Meteoprog und unser Service Anbieter werden persönliche Daten aufbewahren, so wie Cookies, Geräte Bezeichnung oder ähnliche Technologien von deinem Gerät und Prozess, so wie Persönliche Daten Inhalte und Werbungen, genauso wie social Media und den Verkehr zu analysieren.

  • Aufbewahrung und/oder Zugang zu deiner Geräte Informationen.

    Cookies, Geräte Bezeichnung oder andere Informationen, können aufbewahrt oder Zugang zu deinem Gerät erhalten, für den Grund, der oben angegeben wird.

  • Personalisierte Werbung und Inhalte, Messungen, Einblick in das Publikum und Produkt Entwicklung.

    Werbungen und Inhalte können personalisiert werden, basierend auf ein Profil. Mehr Daten können besser personalisierte Werbungen und Inhalte hinzufügen. Werbung und Inhalte können gezeigt und gemessen werden. Einblicke über das Publikum, welche die Werbung gesehen haben und den Inhalt, können abgeleitet werden. So wie Daten können genutzt werden, um es zu verbessern oder die Benutzer Erfahrung zu verbessern das System und die Software.

Wenn du “Ich stimme zu” klickst, erlaubst du uns, die Cookies zu benutzen die Geräte Bezeichnung, den Web oder ähnliche Technologien zu benutzen. Deine Settings, können in deinem Gerät bei deinem Browser geändert werden.

Für den bestimmten Zweck, berechtigten Interessen beruhen darauf, mehr als auf den Inhalt. Du kannst mehr darüber in unseren Privaten und Cookie Politik lesen.